Regional Weather Roundup
Issued by NWS Newport/Morehead, NC

Current Version | Previous Version | Graphics & Text | Print | Product List | Glossary On
Versions: 1 2 3 4 5 6 7 8 9 10 11 12 13 14 15 16 17 18 19 20 21 22 23 24 25 26 27 28 29 30 31 32 33 34 35 36 37 38 39 40 41 42 43 44 45 46 47 48 49 50
000 ASUS42 KMHX 231725 RWRMHX WEATHER ROUNDUP FOR EASTERN NORTH CAROLINA NATIONAL WEATHER SERVICE NEWPORT/MOREHEAD CITY NC 100 PM EDT SAT JUL 23 2016 NOTE: "FAIR" INDICATES FEW OR NO CLOUDS BELOW 12,000 FEET WITH NO SIGNIFICANT WEATHER AND/OR OBSTRUCTIONS TO VISIBILITY NCZ015>017-031-032-045>047-102-103-231800- NORTH COAST CITY SKY/WX TMP DP RH WIND PRES REMARKS EDENTON SUNNY 90 75 61 SW5 30.00F HX 100 ELIZABETH CITY SUNNY 89 75 63 S10 29.99S KITTY HAWK SUNNY 94 73 50 SW3 29.99S HX 104 MANTEO N/A 89 76 66 SW8 30.00S $$ NCZ045>047-081-094-103-104-231800- CENTRAL COAST CITY SKY/WX TMP DP RH WIND PRES REMARKS FRISCO SUNNY 87 76 69 SW9 30.02S $$ NCZ095-097-098-100-101-231800- SOUTHERN COAST CITY SKY/WX TMP DP RH WIND PRES REMARKS BEAUFORT MOSUNNY 86 77 74 SW13 30.02F CEDAR ISLAND NOT AVBL JACKSONVILLE SUNNY 89 71 55 S9 30.01S PINEY ISLAND NOT AVBL WILMINGTON MOSUNNY 90 74 59 W9 30.01F $$ NCZ011>013-027>030-043-044-078>080-089-090>093-098-231800- COASTAL PLAIN CITY SKY/WX TMP DP RH WIND PRES REMARKS AHOSKIE SUNNY 88 77 69 S7 29.99F HX 100 CLINTON MOSUNNY 89 78 69 S5 30.01S HX 103 ELIZABETHTOWN SUNNY 89 75 61 SW6 30.01S GOLDSBORO MOSUNNY 91 79 67 S8 29.99S HX 108 GREENVILLE MOSUNNY 91 79 66 S3 30.01F HX 107 HAVELOCK MOSUNNY 90 73 57 S12 30.02F KENANSVILLE MOSUNNY 88 74 63 CALM 30.01S KINSTON SUNNY 91 77 62 S7 30.01S HX 105 NEW BERN SUNNY 90 75 61 VRB7 30.01F HX 100 RICHLANDS SUNNY 89 76 65 S12 30.01F HX 100 ROCKY MOUNT MOSUNNY 90 77 65 CALM 30.00S HX 103 WASHINGTON MOSUNNY 89 76 65 S8 30.00S HX 100 WHITEVILLE MOSUNNY 88 75 65 S6 30.01F $$ AMZ130-135-150-152-154-156-158-170-250-252-270-ANZ085-086-088-633-658-670-231800- MARINE OBSERVATIONS STATION/POSITION TIME TEMP WIND PRES WAVE SWELL AIR SEA DIR/SP/G HT/PER HT/PER (UTC) (F) (DEG/KT/KT) (MB) (FT/S) (FT/S) CHESAPEAKE LIGHT NOT AVBL 64 E VA BEACH 1650 81 80 230/ 14/ 16 1015.0 3/ 4 2/ 9 DUCK 1700 86 60 220/ 9/ 12 1014.9 2 E DUCK 1611 70 N/A 2/ 9 OREGON INLET 1700 84 83 190/ 16/ 18 1015.8 13E OREGON INLT 1700 82 N/A 2/ 9 2/ 9 HATTERAS CG 1700 86 82 210/ 9/ 14 1016.1 DIAMOND BUOY 1650 84 86 220/ 12/ 14 1016.5 2/ 8 2/ 8 CAPE LOOKOUT 1700 86 230/ 8/ 10 1016.2 BEAUFORT LAB 1700 86 82 210/ 7/ 10 1015.8 30 SE NEW RVR IN 1708 84 85 220/ 8/ 12 1016.6 30 SE NEW RVR IN 1625 85 N/A 2/ 8 27 SE WRIGHTSVLE 1708 83 85 230/ 8/ 12 1016.8 5 SE WRIGHTSVLE 1708 83 84 200/ 10/ 14 1017.2 225 S CAPE HAT 1650 82 86 110/ 2/ 4 1017.8 3/ 7 2/ 7 41 SE CHARLESTON 1650 83 86 140/ 4/ 6 1016.8 2/ 9 2/ 9 $$

USA.gov is the U.S. government's official web portal to all federal, state and local government web resources and services.